Weather History for Crestview, FL

Change the Weather History Date:

Thursday, December 26, 2013

  Actual Average Record
Temperature  
Mean Temperature 48 °F -  
Max Temperature 59 °F - - ()
Min Temperature 37 °F - - ()
Degree Days  
Heating Degree Days 17    
Moisture  
Dew Point 37 °F    
Average Humidity 67    
Maximum Humidity 91    
Minimum Humidity 50    
Precipitation  
Precipitation 0.00 in - - ()
Sea Level Pressure  
Sea Level Pressure 30.29 in    
Wind  
Wind Speed 6 mph (North)    
Max Wind Speed 12 mph    
Max Gust Speed -    
Visibility 10 miles    
Events      
T = Trace of Precipitation, MM = Missing Value Source: NWS Daily Summary

Daily Weather History Graph

Daily Weather History Graph

Search for Another Location

Airport:

Trip Planner

Search our weather history database for the weather conditions in past years. The results will help you decide how hot, cold, wet, or windy it might be!

Date:

Astronomy

Dec. 26, 2013 Rise Set
Actual Time 6:41 AM CST 4:52 PM CST
Civil Twilight 6:15 AM CST 5:18 PM CST
Nautical Twilight 5:45 AM CST 5:48 PM CST
Astronomical Twilight 5:15 AM CST 6:18 PM CST
Moon 12:27 AM CST (12/26) 12:11 PM CST (12/26)
Length of Visible Light 11h 03m
Length of Day
10h 10m
Last Quarter, 38% of the Moon is Illuminated
Dec 26
Last Quarter
Jan 1
New
Jan 7
First Quarter
Jan 15
Full
Jan 23
Last Quarter

Hourly Weather History & Observations

Time (CST) Temp. Windchill Dew Point Humidity Pressure Visibility Wind Dir Wind Speed Gust Speed Precip Events Conditions
12:58 AM 42.8 °F 40.1 °F 35.8 °F 76% 30.30 in 10.0 mi North 4.6 mph - N/A   Partly Cloudy
1:58 AM 43.7 °F 40.3 °F 36.5 °F 76% 30.30 in 10.0 mi NNW 5.8 mph - N/A   Clear
2:58 AM 43.7 °F 39.7 °F 36.3 °F 75% 30.29 in 10.0 mi North 6.9 mph - N/A   Partly Cloudy
3:58 AM 43.5 °F 39.4 °F 36.3 °F 76% 30.28 in 10.0 mi North 6.9 mph - N/A   Partly Cloudy
4:58 AM 42.4 °F 40.7 °F 36.1 °F 78% 30.29 in 10.0 mi North 3.5 mph - N/A   Clear
5:58 AM 38.1 °F 35.7 °F 34.9 °F 88% 30.31 in 10.0 mi North 3.5 mph - N/A   Clear
6:58 AM 37.6 °F - 35.1 °F 91% 30.31 in 10.0 mi North 2.3 mph - N/A   Clear
7:58 AM 39.6 °F 36.3 °F 35.8 °F 86% 30.32 in 10.0 mi North 4.6 mph - N/A   Clear
8:55 AM 47.1 °F - 35.4 °F 64% 30.31 in 10.0 mi NNE 10.4 mph - N/A   Mostly Cloudy
9:59 AM 52.5 °F - 37.6 °F 57% 30.33 in 10.0 mi North 11.5 mph - N/A   Mostly Cloudy
10:55 AM 55.6 °F - 38.8 °F 53% 30.32 in 10.0 mi North 10.4 mph - N/A   Mostly Cloudy
11:55 AM 57.9 °F - 40.5 °F 52% 30.27 in 10.0 mi NNE 10.4 mph - N/A   Mostly Cloudy
12:55 PM 59.2 °F - 41.0 °F 51% 30.26 in 10.0 mi NE 8.1 mph - N/A   Mostly Cloudy
1:55 PM 58.6 °F - 41.2 °F 52% 30.25 in 10.0 mi NNE 10.4 mph - N/A   Mostly Cloudy
2:55 PM 58.3 °F - 39.7 °F 50% 30.23 in 10.0 mi NNE 11.5 mph - N/A   Mostly Cloudy
3:55 PM 54.0 °F - 37.2 °F 53% 30.26 in 10.0 mi North 10.4 mph - N/A   Mostly Cloudy
4:55 PM 51.3 °F - 36.7 °F 57% 30.27 in 10.0 mi North 8.1 mph - N/A   Mostly Cloudy
5:55 PM 49.1 °F - 36.1 °F 61% 30.28 in 10.0 mi North 8.1 mph - N/A   Mostly Cloudy
6:55 PM 46.9 °F - 35.1 °F 63% 30.29 in 10.0 mi NNE 5.8 mph - N/A   Mostly Cloudy
7:55 PM 45.5 °F 42.5 °F 35.1 °F 67% 30.30 in 10.0 mi North 5.8 mph - N/A   Mostly Cloudy
8:55 PM 45.5 °F 42.5 °F 34.5 °F 65% 30.30 in 10.0 mi North 5.8 mph - N/A   Mostly Cloudy
9:55 PM 44.1 °F 41.5 °F 34.9 °F 70% 30.30 in 10.0 mi NNE 4.6 mph - N/A   Mostly Cloudy
10:55 PM 43.0 °F 41.3 °F 34.2 °F 71% 30.30 in 10.0 mi NNE 3.5 mph - N/A   Mostly Cloudy
11:55 PM 42.6 °F 40.9 °F 34.7 °F 74% 30.30 in 10.0 mi North 3.5 mph - N/A   Mostly Cloudy